Location: Tel Aviv
(32.0670°N, 34.7670°E)
Time: 07:23:05
(UTC+02:00)

Vanguard 1 Rocket - Pass Details

Date: 27 July 2025
Orbit: 653 x 4214 km, 34.3° (Epoch: 6 March)

Event Time Altitude Azimuth Distance (km) Brightness Sun altitude
Rises 00:41:44 0° 288° (WNW) 5,940 11.8 -38.7°
Reaches altitude 10° 00:46:36 10° 283° (WNW) 4,329 10.9 -38.7°
Enters shadow 00:51:15 24° 271° (W) 2,773 9.8 -38.7°
